| time (UTC) | temp F | wind direction | speed MPH | gust MPH | rain 1hr in | rain 24hr in | rain mn in | humidity % | barometer mb |
| 20260507144017 | 48 | 0.0 | 1.0 | 0.00 | 0.00 | 0.00 | 43 | 1012.0 | |
| 20260507143017 | 48 | 0.0 | 3.0 | 0.00 | 0.00 | 0.00 | 45 | 1012.1 | |
| 20260507142017 | 47 | 0.0 | 2.0 | 0.00 | 0.00 | 0.00 | 48 | 1012.2 | |
| 20260507141017 | 46 | 270 | 1.0 | 3.0 | 0.00 | 0.00 | 0.00 | 47 | 1012.2 |
| 20260507140017 | 46 | 0.0 | 1.0 | 0.00 | 0.00 | 0.00 | 49 | 1012.3 | |
| 20260507135037 | 45 | 0.0 | 1.0 | 0.00 | 0.00 | 0.00 | 49 | 1012.3 | |
| 20260507134017 | 45 | 0.0 | 1.0 | 0.00 | 0.00 | 0.00 | 55 | 1012.3 | |
| 20260507133017 | 44 | 0.0 | 3.0 | 0.00 | 0.00 | 0.00 | 57 | 1012.4 | |
| 20260507132017 | 43 | 0.0 | 2.0 | 0.00 | 0.00 | 0.00 | 59 | 1012.3 | |
| 20260507131017 | 42 | 0.0 | 0.0 | 0.00 | 0.00 | 0.00 | 65 | 1012.4 | |
| 20260507130017 | 41 | 0.0 | 0.0 | 0.00 | 0.00 | 0.00 | 68 | 1012.5 | |
| 20260507125037 | 39 | 0.0 | 1.0 | 0.00 | 0.00 | 0.00 | 74 | 1012.4 | |
| 20260507124017 | 37 | 0.0 | 0.0 | 0.00 | 0.00 | 0.00 | 84 | 1012.5 | |
| 20260507123017 | 35 | 0.0 | 0.0 | 0.00 | 0.00 | 0.00 | 89 | 1012.4 | |
| 20260507122017 | 33 | 0.0 | 0.0 | 0.00 | 0.00 | 0.00 | 90 | 1012.3 | |
| 20260507121037 | 32 | 0.0 | 0.0 | 0.00 | 0.00 | 0.00 | 91 | 1012.3 | |
| 20260507120022 | 30 | 0.0 | 0.0 | 0.00 | 0.00 | 0.00 | 89 | 1012.2 | |
| 20260507115016 | 30 | 0.0 | 0.0 | 0.00 | 0.00 | 0.00 | 89 | 1012.1 | |
| 20260507114037 | 29 | 0.0 | 0.0 | 0.00 | 0.00 | 0.00 | 88 | 1012.1 | |
| 20260507113023 | 29 | 0.0 | 0.0 | 0.00 | 0.00 | 0.00 | 88 | 1012.1 | |
| 20260507112016 | 29 | 0.0 | 0.0 | 0.00 | 0.00 | 0.00 | 88 | 1012.0 | |
| 20260507111016 | 29 | 0.0 | 0.0 | 0.00 | 0.00 | 0.00 | 87 | 1012.0 | |
| 20260507110016 | 29 | 0.0 | 0.0 | 0.00 | 0.00 | 0.00 | 87 | 1012.0 | |
| 20260507105016 | 30 | 0.0 | 0.0 | 0.00 | 0.00 | 0.00 | 86 | 1012.1 | |
| 20260507104021 | 30 | 0.0 | 0.0 | 0.00 | 0.00 | 0.00 | 86 | 1012.1 | |
| 20260507103036 | 30 | 0.0 | 0.0 | 0.00 | 0.00 | 0.00 | 86 | 1012.1 | |
| 20260507102017 | 30 | 0.0 | 0.0 | 0.00 | 0.00 | 0.00 | 86 | 1012.0 | |
| 20260507101016 | 30 | 0.0 | 0.0 | 0.00 | 0.00 | 0.00 | 85 | 1012.1 | |
| 20260507100016 | 30 | 0.0 | 0.0 | 0.00 | 0.00 | 0.00 | 85 | 1012.1 | |
| 20260507095041 | 31 | 0.0 | 0.0 | 0.00 | 0.00 | 0.00 | 85 | 1012.1 | |
| 20260507094017 | 31 | 0.0 | 0.0 | 0.00 | 0.00 | 0.00 | 85 | 1012.2 | |
| 20260507093016 | 31 | 0.0 | 0.0 | 0.00 | 0.00 | 0.00 | 84 | 1012.2 | |
| 20260507092016 | 31 | 0.0 | 0.0 | 0.00 | 0.00 | 0.00 | 83 | 1012.2 | |
| 20260507091016 | 31 | 0.0 | 0.0 | 0.00 | 0.00 | 0.00 | 83 | 1012.2 | |
| 20260507090037 | 31 | 0.0 | 0.0 | 0.00 | 0.00 | 0.00 | 82 | 1012.2 | |
| 20260507085016 | 32 | 0.0 | 0.0 | 0.00 | 0.00 | 0.00 | 82 | 1012.1 | |
| 20260507084017 | 32 | 0.0 | 0.0 | 0.00 | 0.00 | 0.00 | 82 | 1012.2 | |
| 20260507083016 | 32 | 0.0 | 0.0 | 0.00 | 0.00 | 0.00 | 82 | 1012.1 | |
| 20260507082016 | 32 | 0.0 | 0.0 | 0.00 | 0.00 | 0.00 | 81 | 1012.2 | |
| 20260507081017 | 32 | 0.0 | 0.0 | 0.00 | 0.00 | 0.00 | 80 | 1012.2 | |
| 20260507080016 | 32 | 0.0 | 0.0 | 0.00 | 0.00 | 0.00 | 79 | 1012.2 | |
| 20260507075016 | 33 | 0.0 | 0.0 | 0.00 | 0.00 | 0.00 | 79 | 1012.4 | |
| 20260507074016 | 33 | 0.0 | 0.0 | 0.00 | 0.00 | 0.00 | 78 | 1012.4 | |
| 20260507073016 | 33 | 0.0 | 0.0 | 0.00 | 0.00 | 0.00 | 77 | 1012.4 | |
| 20260507072016 | 34 | 0.0 | 0.0 | 0.00 | 0.00 | 0.00 | 75 | 1012.4 | |
| 20260507071016 | 34 | 0.0 | 0.0 | 0.00 | 0.00 | 0.00 | 74 | 1012.7 | |
| 20260507070016 | 34 | 0.0 | 0.0 | 0.00 | 0.00 | 0.00 | 73 | 1012.7 | |
| 20260507065036 | 35 | 0.0 | 0.0 | 0.00 | 0.00 | 0.00 | 72 | 1012.8 | |
| 20260507064016 | 35 | 0.0 | 0.0 | 0.00 | 0.00 | 0.00 | 71 | 1012.9 | |
| 20260507063016 | 36 | 0.0 | 0.0 | 0.00 | 0.00 | 0.00 | 71 | 1013.0 | |
| 20260507062016 | 36 | 0.0 | 0.0 | 0.00 | 0.00 | 0.00 | 70 | 1013.1 | |
| 20260507061016 | 36 | 0.0 | 0.0 | 0.00 | 0.00 | 0.00 | 68 | 1013.1 | |
| 20260507060016 | 37 | 0.0 | 0.0 | 0.00 | 0.00 | 0.00 | 67 | 1013.1 | |
| 20260507055016 | 37 | 0.0 | 0.0 | 0.00 | 0.00 | 0.00 | 66 | 1013.2 | |
| 20260507054016 | 38 | 0.0 | 0.0 | 0.00 | 0.00 | 0.00 | 66 | 1013.2 | |
| 20260507053016 | 38 | 0.0 | 0.0 | 0.00 | 0.00 | 0.00 | 65 | 1013.3 | |
| 20260507052016 | 38 | 0.0 | 0.0 | 0.00 | 0.00 | 0.00 | 65 | 1013.3 | |
| 20260507051016 | 38 | 0.0 | 0.0 | 0.00 | 0.00 | 0.00 | 66 | 1013.3 | |
| 20260507050016 | 38 | 0.0 | 0.0 | 0.00 | 0.00 | 0.00 | 65 | 1013.4 | |
| 20260507045017 | 38 | 0.0 | 0.0 | 0.00 | 0.00 | 0.00 | 65 | 1013.4 | |
| 20260507044016 | 38 | 0.0 | 0.0 | 0.00 | 0.00 | 0.00 | 65 | 1013.5 | |
| 20260507043016 | 38 | 0.0 | 0.0 | 0.00 | 0.00 | 0.00 | 65 | 1013.5 | |
| 20260507042016 | 38 | 0.0 | 0.0 | 0.00 | 0.00 | 0.00 | 65 | 1013.6 | |
| 20260507041016 | 38 | 0.0 | 0.0 | 0.00 | 0.00 | 0.00 | 65 | 1013.6 | |
| 20260507040041 | 38 | 0.0 | 0.0 | 0.00 | 0.00 | 0.00 | 65 | 1013.6 | |
| 20260507035016 | 38 | 0.0 | 0.0 | 0.00 | 0.00 | 0.00 | 65 | 1013.6 | |
| 20260507034016 | 38 | 0.0 | 0.0 | 0.00 | 0.00 | 0.00 | 65 | 1013.7 | |
| 20260507033016 | 38 | 0.0 | 0.0 | 0.00 | 0.00 | 0.00 | 65 | 1013.7 | |
| 20260507032036 | 38 | 0.0 | 0.0 | 0.00 | 0.00 | 0.00 | 64 | 1013.7 | |
| 20260507031036 | 38 | 0.0 | 0.0 | 0.00 | 0.00 | 0.00 | 63 | 1013.8 | |
| 20260507030016 | 38 | 0.0 | 0.0 | 0.00 | 0.00 | 0.00 | 61 | 1013.8 | |
| 20260507025016 | 38 | 0.0 | 0.0 | 0.00 | 0.00 | 0.00 | 60 | 1013.8 | |
| 20260507024016 | 39 | 0.0 | 0.0 | 0.00 | 0.00 | 0.00 | 59 | 1013.9 | |
| 20260507023036 | 39 | 0.0 | 0.0 | 0.00 | 0.00 | 0.00 | 57 | 1013.9 | |
| 20260507022016 | 40 | 0.0 | 0.0 | 0.00 | 0.00 | 0.00 | 56 | 1014.0 | |
| 20260507021016 | 41 | 0.0 | 0.0 | 0.00 | 0.00 | 0.00 | 54 | 1014.1 | |
| 20260507020017 | 41 | 0.0 | 0.0 | 0.00 | 0.00 | 0.00 | 53 | 1014.0 | |
| 20260507015016 | 42 | 0.0 | 0.0 | 0.00 | 0.00 | 0.00 | 52 | 1014.0 | |
| 20260507014016 | 42 | 0.0 | 1.0 | 0.00 | 0.00 | 0.00 | 51 | 1013.9 | |
| 20260507013016 | 43 | 0.0 | 3.0 | 0.00 | 0.00 | 0.00 | 50 | 1013.9 | |
| 20260507012016 | 43 | 0.0 | 2.0 | 0.00 | 0.00 | 0.00 | 50 | 1014.0 | |
| 20260507011016 | 44 | 0.0 | 3.0 | 0.00 | 0.00 | 0.00 | 49 | 1014.0 | |
| 20260507010016 | 44 | 270 | 1.0 | 7.0 | 0.00 | 0.00 | 0.00 | 49 | 1014.0 |
| 20260507005016 | 45 | 270 | 1.0 | 8.0 | 0.00 | 0.00 | 0.00 | 48 | 1014.0 |
| 20260507004016 | 45 | 270 | 2.0 | 8.0 | 0.00 | 0.00 | 0.00 | 48 | 1014.1 |
| 20260507003016 | 45 | 270 | 1.0 | 6.0 | 0.00 | 0.00 | 0.00 | 48 | 1013.9 |
| 20260507002016 | 45 | 270 | 1.0 | 8.0 | 0.00 | 0.00 | 0.00 | 48 | 1014.1 |
| 20260507001016 | 45 | 0.0 | 3.0 | 0.00 | 0.00 | 0.00 | 48 | 1014.0 | |
| 20260507000016 | 45 | 338 | 2.0 | 10.0 | 0.00 | 0.00 | 0.00 | 47 | 1014.1 |
| 20260506235016 | 45 | 270 | 1.0 | 8.0 | 0.00 | 0.00 | 0.00 | 48 | 1014.1 |
| 20260506234016 | 45 | 270 | 1.0 | 4.0 | 0.00 | 0.00 | 0.00 | 48 | 1014.1 |
| 20260506233016 | 45 | 225 | 2.0 | 10.0 | 0.00 | 0.00 | 0.00 | 47 | 1014.2 |
| 20260506232016 | 45 | 293 | 1.0 | 8.0 | 0.00 | 0.00 | 0.00 | 47 | 1014.2 |
| 20260506231037 | 45 | 0.0 | 4.0 | 0.00 | 0.00 | 0.00 | 48 | 1014.2 | |
| 20260506230018 | 45 | 293 | 2.0 | 7.0 | 0.00 | 0.00 | 0.00 | 47 | 1014.2 |
| 20260506225018 | 45 | 270 | 1.0 | 7.0 | 0.00 | 0.00 | 0.00 | 48 | 1014.3 |
| 20260506224018 | 45 | 270 | 3.0 | 12.0 | 0.00 | 0.00 | 0.00 | 48 | 1014.3 |
| 20260506223016 | 45 | 270 | 1.0 | 6.0 | 0.00 | 0.00 | 0.00 | 49 | 1014.3 |
| 20260506222017 | 44 | 293 | 2.0 | 9.0 | 0.00 | 0.00 | 0.00 | 49 | 1014.4 |
| 20260506221017 | 45 | 270 | 1.0 | 6.0 | 0.00 | 0.00 | 0.00 | 49 | 1014.4 |
| 20260506220017 | 44 | 270 | 1.0 | 6.0 | 0.00 | 0.00 | 0.00 | 49 | 1014.5 |
| 20260506215058 | 45 | 270 | 3.0 | 12.0 | 0.00 | 0.00 | 0.00 | 48 | 1014.6 |
| 20260506214017 | 44 | 270 | 2.0 | 8.0 | 0.00 | 0.00 | 0.00 | 49 | 1014.5 |
| 20260506213017 | 44 | 270 | 2.0 | 7.0 | 0.00 | 0.00 | 0.00 | 49 | 1014.6 |
| 20260506212017 | 45 | 0.0 | 2.0 | 0.00 | 0.00 | 0.00 | 50 | 1014.7 | |
| 20260506211037 | 44 | 270 | 2.0 | 9.0 | 0.00 | 0.00 | 0.00 | 50 | 1014.7 |
| 20260506210017 | 44 | 270 | 1.0 | 9.0 | 0.00 | 0.00 | 0.00 | 51 | 1014.8 |
| 20260506205018 | 44 | 293 | 2.0 | 8.0 | 0.00 | 0.00 | 0.00 | 50 | 1014.9 |
| 20260506204017 | 44 | 315 | 2.0 | 9.0 | 0.00 | 0.00 | 0.00 | 51 | 1015.0 |
| 20260506203017 | 43 | 338 | 2.0 | 8.0 | 0.00 | 0.00 | 0.00 | 51 | 1015.1 |
| 20260506202017 | 43 | 293 | 1.0 | 4.0 | 0.00 | 0.00 | 0.00 | 52 | 1015.0 |
| 20260506201017 | 43 | 293 | 3.0 | 9.0 | 0.00 | 0.00 | 0.00 | 51 | 1015.1 |
| 20260506200017 | 43 | 270 | 1.0 | 9.0 | 0.00 | 0.00 | 0.00 | 52 | 1015.1 |
| 20260506195018 | 43 | 315 | 2.0 | 8.0 | 0.00 | 0.00 | 0.00 | 52 | 1015.2 |
| 20260506194017 | 43 | 270 | 3.0 | 10.0 | 0.00 | 0.00 | 0.00 | 52 | 1015.2 |
| 20260506193017 | 43 | 293 | 2.0 | 8.0 | 0.00 | 0.00 | 0.00 | 52 | 1015.2 |
| 20260506192017 | 42 | 293 | 1.0 | 6.0 | 0.00 | 0.00 | 0.00 | 51 | 1015.2 |
| 20260506191017 | 42 | 270 | 1.0 | 6.0 | 0.00 | 0.00 | 0.00 | 52 | 1015.2 |
| 20260506190018 | 42 | 315 | 3.0 | 10.0 | 0.00 | 0.00 | 0.00 | 52 | 1015.1 |
| 20260506185017 | 42 | 270 | 3.0 | 11.0 | 0.00 | 0.00 | 0.00 | 51 | 1015.1 |
| 20260506184017 | 42 | 293 | 2.0 | 7.0 | 0.00 | 0.00 | 0.00 | 53 | 1015.2 |
| 20260506183037 | 42 | 270 | 1.0 | 3.0 | 0.00 | 0.00 | 0.00 | 53 | 1015.3 |
| 20260506182017 | 42 | 338 | 2.0 | 8.0 | 0.00 | 0.00 | 0.00 | 53 | 1015.3 |
| 20260506181017 | 42 | 315 | 1.0 | 7.0 | 0.00 | 0.00 | 0.00 | 53 | 1015.2 |
| 20260506180017 | 42 | 315 | 3.0 | 10.0 | 0.00 | 0.00 | 0.00 | 52 | 1015.3 |
| 20260506175017 | 41 | 315 | 2.0 | 8.0 | 0.00 | 0.00 | 0.00 | 53 | 1015.4 |
| 20260506174017 | 41 | 293 | 2.0 | 8.0 | 0.00 | 0.00 | 0.00 | 54 | 1015.5 |
| 20260506173017 | 41 | 293 | 4.0 | 10.0 | 0.00 | 0.00 | 0.00 | 53 | 1015.5 |
| 20260506172017 | 41 | 270 | 4.0 | 14.0 | 0.00 | 0.00 | 0.00 | 52 | 1015.6 |
| 20260506171017 | 41 | 293 | 2.0 | 8.0 | 0.00 | 0.00 | 0.00 | 55 | 1015.6 |
| 20260506170017 | 41 | 293 | 2.0 | 10.0 | 0.00 | 0.00 | 0.00 | 55 | 1015.6 |
| 20260506165017 | 40 | 315 | 2.0 | 10.0 | 0.00 | 0.00 | 0.00 | 56 | 1015.7 |
| 20260506164017 | 40 | 315 | 3.0 | 7.0 | 0.00 | 0.00 | 0.00 | 55 | 1015.7 |
| 20260506163017 | 40 | 315 | 2.0 | 11.0 | 0.00 | 0.00 | 0.00 | 55 | 1015.8 |
| 20260506162017 | 40 | 270 | 4.0 | 13.0 | 0.00 | 0.00 | 0.00 | 55 | 1015.7 |
| 20260506161017 | 40 | 315 | 1.0 | 5.0 | 0.00 | 0.00 | 0.00 | 55 | 1015.7 |
| 20260506160037 | 40 | 270 | 2.0 | 10.0 | 0.00 | 0.00 | 0.00 | 55 | 1015.6 |
| 20260506155017 | 40 | 293 | 3.0 | 10.0 | 0.00 | 0.00 | 0.00 | 55 | 1015.6 |
| 20260506154017 | 40 | 315 | 3.0 | 10.0 | 0.00 | 0.00 | 0.00 | 55 | 1015.6 |
| 20260506153017 | 39 | 293 | 2.0 | 10.0 | 0.00 | 0.00 | 0.00 | 56 | 1015.6 |
| 20260506152017 | 40 | 270 | 3.0 | 14.0 | 0.00 | 0.00 | 0.00 | 55 | 1015.5 |
| 20260506151018 | 40 | 270 | 3.0 | 10.0 | 0.00 | 0.00 | 0.00 | 55 | 1015.6 |
| 20260506150057 | 40 | 315 | 4.0 | 16.0 | 0.00 | 0.00 | 0.00 | 54 | 1015.7 |
| 20260506145022 | 40 | 270 | 4.0 | 16.0 | 0.00 | 0.00 | 0.00 | 55 | 1015.7 |